Location: Unspecified
(0.0000°N, 0.0000°E)
Time: 15:53:36
(UTC+00:00)

Cosmos 80 Rocket - Pass Details

Date: 25 September 2021
Orbit: 1360 x 1510 km, 56.1° (Epoch: 25 October)

Event Time Altitude Azimuth Distance (km) Brightness Sun altitude
Rises 21:00:57 0° 327° (NNW) 4,579 8.3 -47.4°
Reaches altitude 10° 21:03:57 10° 326° (NNW) 3,583 7.6 -48.1°
Enters shadow 21:06:09 20° 325° (NW) 2,872 7.1 -48.7°
